CW1656 Weather Reports


time (UTC)temp
C
wind
direction
speed
KPH
gust
KPH
rain 1hr
cm
rain 24hr
cm
rain mn
cm
humidity
%
barometer
mb
20260507084548 2 277 0.0 0.0 0.00 0.97 0.00 97 1014.1
20260507083032 2 277 0.0 0.0 0.00 0.97 0.00 97 1014.0
20260507081531 2 277 0.0 0.0 0.00 0.97 0.00 97 1014.5
20260507080028 2 277 0.0 0.0 0.00 0.97 0.00 97 1014.4
20260507074524 3 277 0.0 0.0 0.00 1.19 0.00 97 1014.1
20260507073025 3 277 0.0 0.0 0.00 1.19 0.00 97 1014.2
20260507071521 3 277 0.0 0.0 0.00 1.19 0.00 97 1014.3
20260507070022 4 277 0.0 0.0 0.00 1.19 0.00 97 1014.7
20260507064517 4 277 0.0 0.0 0.00 1.42 0.00 97 1014.5
20260507063016 4 277 0.0 0.0 0.00 1.42 0.00 97 1014.5
20260507061514 5 277 0.0 0.0 0.00 1.42 0.00 97 1014.4
20260507060022 5 277 0.0 0.0 0.00 1.42 0.00 97 1014.4
20260507054510 5 277 0.0 0.0 0.00 1.80 0.00 97 1014.7
20260507053009 5 277 0.0 0.0 0.00 1.80 0.00 97 1014.9
20260507051507 5 277 0.0 3.2 0.00 1.80 0.00 97 1015.0
20260507050112 5 279 0.0 0.0 0.00 1.80 0.00 97 1014.9
20260507044503 5 279 0.0 0.0 0.00 2.08 0.00 97 1015.1
20260507043002 5 279 0.0 0.0 0.00 2.08 0.00 97 1015.0
20260507041601 5 279 0.0 0.0 0.00 2.08 0.00 97 1015.0
20260507040103 5 279 0.0 1.6 0.00 2.08 0.00 97 1014.9
20260507034559 5 277 0.0 4.8 0.00 2.24 2.08 97 1014.7
20260507033055 5 279 0.0 6.4 0.00 2.24 2.08 97 1014.6
20260507031555 5 281 0.0 8.0 0.00 2.24 2.08 97 1014.7
20260507030054 5 289 0.0 6.4 0.00 2.24 2.08 97 1014.6
20260507024554 5 277 0.0 6.4 0.00 2.24 2.08 97 1014.5
20260507023052 5 296 0.0 0.0 0.00 2.24 2.08 96 1014.5
20260507021559 5 301 0.0 0.0 0.00 2.24 2.08 96 1014.6
20260507020051 5 292 0.0 0.0 0.00 2.24 2.08 96 1014.7
20260507014549 5 293 0.0 0.0 0.00 2.34 2.08 96 1014.4
20260507013048 5 293 0.0 0.0 0.00 2.34 2.08 96 1014.2
20260507011550 5 288 0.0 0.0 0.00 2.34 2.08 96 1014.5
20260507010047 5 298 0.0 4.8 0.00 2.34 2.08 96 1014.4
20260507004545 5 279 3.2 11.3 0.00 2.41 2.08 96 1014.3
20260507003042 5 227 0.0 12.9 0.00 2.41 2.08 95 1014.1
20260507001540 5 280 0.0 8.0 0.05 2.41 2.08 95 1013.8
20260507000037 6 294 3.2 14.5 0.10 2.41 2.08 95 1013.5
20260506234543 6 278 0.0 9.7 0.18 2.51 2.08 94 1013.2
20260506233033 6 34 3.2 11.3 0.25 2.51 2.08 94 1013.1
20260506231532 7 304 4.8 24.1 0.20 2.46 2.03 93 1013.1
20260506230032 8 275 0.0 6.4 0.18 2.41 1.98 94 1012.3
20260506224528 8 165 0.0 1.6 0.10 2.44 1.91 93 1012.1
20260506223025 8 165 0.0 0.0 0.03 2.36 1.83 92 1011.8
20260506221525 8 165 0.0 0.0 0.03 2.36 1.83 91 1011.8
20260506220031 9 165 0.0 0.0 0.00 2.34 1.80 89 1011.7
20260506214525 9 165 0.0 3.2 0.00 2.49 1.80 88 1011.5
20260506213029 9 165 0.0 3.2 0.00 2.49 1.80 87 1011.4
20260506211527 9 165 0.0 0.0 0.00 2.49 1.80 88 1011.4
20260506210030 9 165 1.6 3.2 0.00 2.49 1.80 88 1011.4
20260506204531 9 165 0.0 3.2 0.00 2.49 1.80 88 1011.6
20260506203028 9 173 0.0 3.2 0.00 2.49 1.80 87 1011.6
20260506201526 9 173 0.0 4.8 0.00 2.49 1.80 87 1011.7
20260506200022 9 158 0.0 3.2 0.00 2.49 1.80 88 1011.5
20260506194519 9 195 0.0 3.2 0.00 2.49 1.80 89 1011.5
20260506193018 8 44 0.0 3.2 0.00 2.49 1.80 89 1011.4
20260506191517 8 301 0.0 4.8 0.00 2.49 1.80 91 1011.5
20260506190017 8 290 0.0 3.2 0.00 2.49 1.80 91 1011.5
20260506184516 8 296 1.6 4.8 0.00 2.49 1.80 92 1011.8
20260506183015 7 290 0.0 11.3 0.00 2.49 1.80 93 1011.8
20260506181520 7 277 1.6 4.8 0.00 2.49 1.80 93 1011.7
20260506180016 7 59 0.0 4.8 0.00 2.49 1.80 94 1011.9
20260506174514 7 275 0.0 4.8 0.00 2.49 1.80 95 1011.8
20260506173011 7 325 1.6 4.8 0.00 2.49 1.80 96 1011.5
20260506171517 7 19 0.0 0.0 0.00 2.49 1.80 96 1011.3
20260506170008 7 112 0.0 0.0 0.00 2.49 1.80 97 1011.0
20260506164507 7 58 0.0 0.0 0.00 2.49 1.80 97 1011.1
20260506163007 7 355 0.0 0.0 0.00 2.49 1.80 97 1011.1
20260506161508 7 265 0.0 0.0 0.00 2.49 1.80 97 1011.1
20260506160005 6 40 0.0 0.0 0.00 2.49 1.80 97 1011.1
20260506154505 7 271 0.0 0.0 0.00 2.49 1.80 98 1011.1
20260506153003 6 269 0.0 0.0 0.00 2.49 1.80 97 1011.1
20260506151501 7 44 0.0 0.0 0.03 2.49 1.80 98 1010.9
20260506150002 6 44 0.0 0.0 0.03 2.49 1.80 98 1010.8
20260506144622 6 44 0.0 0.0 0.03 2.51 1.80 98 1010.8
20260506143104 6 44 0.0 0.0 0.05 2.51 1.80 98 1010.7
20260506141559 6 44 0.0 0.0 0.05 2.49 1.78 98 1010.5
20260506140111 6 44 0.0 0.0 0.08 2.49 1.78 98 1010.3
20260506134558 6 44 0.0 0.0 0.10 2.49 1.78 98 1010.2
20260506133058 6 44 0.0 0.0 0.10 2.46 1.75 98 1010.3
20260506131559 6 44 0.0 0.0 0.10 2.44 1.73 98 1010.3
20260506130128 6 44 0.0 0.0 0.08 2.41 1.70 98 1010.2
20260506124557 6 44 0.0 0.0 0.08 2.39 1.68 98 1010.1
20260506123056 6 44 0.0 0.0 0.08 2.36 1.65 98 1010.0
20260506121556 6 44 0.0 0.0 0.08 2.34 1.63 98 1010.0
20260506120054 6 44 0.0 0.0 0.08 2.31 1.60 98 1010.1
20260506114552 6 44 0.0 0.0 0.10 2.31 1.60 98 1010.2
20260506113049 6 44 0.0 0.0 0.13 2.29 1.57 98 1010.2
20260506111546 6 44 0.0 0.0 0.10 2.24 1.52 98 1010.0
20260506110052 6 44 0.0 0.0 0.15 2.24 1.52 98 1009.8
20260506104545 6 44 0.0 0.0 0.15 2.21 1.50 98 1009.6
20260506103047 6 44 0.0 0.0 0.15 2.16 1.42 97 1009.9
20260506101553 6 44 0.0 0.0 0.15 2.13 1.42 97 1010.1
20260506100043 6 44 0.0 0.0 0.13 2.08 1.37 97 1010.0
20260506094552 6 44 0.0 0.0 0.13 2.06 1.35 97 1009.9
20260506093046 6 44 0.0 0.0 0.10 2.01 1.30 97 1010.2
20260506091540 6 44 0.0 0.0 0.10 1.98 1.27 97 1009.9
20260506090042 6 44 0.0 0.0 0.10 1.96 1.24 98 1009.7